When you browse on this site, cookies collect data to enhance your experience and personalize the content and advertising you see.
Visit our Privacy Policy to learn more. By continuing to use the site, you agree to this use of cookies and data.
  • In Latvia
  • List of Countries
  • For 7 days
  • Water Temperature
  • Satellite Maps
  • Weather Map
  • Weather Widgets
  • user-avatar
    Login

    Hourly Weather Manicaland

    Today, 26 May, Sunday

    Time Temperature Precipitation Wind Pressure Humidity
    00:00 +12°C° 0 mm 0 mps 678 mmHg 85%
    01:00 +11°C° 0 mm 0 mps 678 mmHg 87%
    02:00 +11°C° 0 mm 0 mps 678 mmHg 91%
    03:00 +11°C° 0 mm 0 mps 677 mmHg 92%
    04:00 +11°C° 0 mm 0 mps 677 mmHg 93%
    05:00 +11°C° 0 mm 0 mps 677 mmHg 95%
    06:00 +12°C° 0 mm 0 mps 678 mmHg 89%
    07:00 +14°C° 0 mm 0 mps 678 mmHg 83%
    08:00 +15°C° 0 mm 0 mps 679 mmHg 77%
    09:00 +19°C° 0 mm 1 mps 679 mmHg 68%
    10:00 +21°C° 0 mm 1 mps 679 mmHg 60%
    11:00 +21°C° 0 mm 2 mps 679 mmHg 51%
    12:00 +23°C° 0 mm 2 mps 679 mmHg 47%
    13:00 +24°C° 0 mm 2 mps 679 mmHg 44%
    14:00 +25°C° 0 mm 3 mps 678 mmHg 40%
    15:00 +24°C° 0 mm 3 mps 678 mmHg 44%
    16:00 +22°C° 0 mm 3 mps 678 mmHg 47%
    17:00 +20°C° 0 mm 3 mps 678 mmHg 51%
    18:00 +19°C° 0 mm 2 mps 678 mmHg 60%
    19:00 +18°C° 0 mm 1 mps 677 mmHg 68%
    20:00 +15°C° 0 mm 1 mps 677 mmHg 77%
    21:00 +14°C° 0 mm 1 mps 677 mmHg 81%
    22:00 +12°C° 0 mm 0 mps 677 mmHg 84%
    23:00 +12°C° 0 mm 0 mps 677 mmHg 87%

    Tomorrow, 27 May, Monday

    Time Temperature Precipitation Wind Pressure Humidity
    00:00 +11°C° 0 mm 0 mps 677 mmHg 88%
    01:00 +11°C° 0 mm 0 mps 677 mmHg 90%
    02:00 +11°C° 0 mm 0 mps 677 mmHg 91%
    03:00 +10°C° 0 mm 0 mps 677 mmHg 91%
    04:00 +10°C° 0 mm 0 mps 677 mmHg 92%
    05:00 +10°C° 0 mm 0 mps 677 mmHg 92%
    06:00 +11°C° 0 mm 0 mps 677 mmHg 85%
    07:00 +13°C° 0 mm 0 mps 678 mmHg 77%
    08:00 +15°C° 0 mm 0 mps 679 mmHg 69%
    09:00 +17°C° 0 mm 0 mps 679 mmHg 59%
    10:00 +21°C° 0 mm 1 mps 679 mmHg 50%
    11:00 +24°C° 0 mm 1 mps 680 mmHg 40%
    12:00 +24°C° 0 mm 2 mps 679 mmHg 36%
    13:00 +25°C° 0 mm 2 mps 678 mmHg 32%
    14:00 +26°C° 0 mm 2 mps 678 mmHg 29%
    15:00 +24°C° 0 mm 2 mps 677 mmHg 32%
    16:00 +23°C° 0 mm 2 mps 677 mmHg 36%
    17:00 +21°C° 0 mm 2 mps 677 mmHg 39%
    18:00 +20°C° 0 mm 1 mps 677 mmHg 47%
    19:00 +18°C° 0 mm 1 mps 677 mmHg 55%
    20:00 +15°C° 0 mm 1 mps 677 mmHg 63%
    21:00 +14°C° 0 mm 1 mps 677 mmHg 68%
    22:00 +14°C° 0 mm 1 mps 677 mmHg 73%
    23:00 +13°C° 0 mm 1 mps 677 mmHg 79%

    Day after tomorrow, 28 May, Tuesday

    Time Temperature Precipitation Wind Pressure Humidity
    00:00 +12°C° 0 mm 1 mps 677 mmHg 82%
    01:00 +12°C° 0 mm 1 mps 677 mmHg 86%
    02:00 +12°C° 0 mm 1 mps 676 mmHg 89%
    03:00 +11°C° 0 mm 1 mps 676 mmHg 90%
    04:00 +11°C° 0 mm 1 mps 676 mmHg 92%
    05:00 +11°C° 0 mm 1 mps 676 mmHg 93%
    06:00 +12°C° 0 mm 0 mps 677 mmHg 86%
    07:00 +13°C° 0 mm 0 mps 677 mmHg 79%
    08:00 +15°C° 0 mm 0 mps 678 mmHg 71%
    09:00 +18°C° 0 mm 0 mps 679 mmHg 61%
    10:00 +22°C° 0 mm 1 mps 679 mmHg 50%
    11:00 +25°C° 0 mm 1 mps 679 mmHg 39%
    12:00 +26°C° 0 mm 1 mps 679 mmHg 36%
    13:00 +26°C° 0 mm 2 mps 678 mmHg 32%
    14:00 +27°C° 0 mm 2 mps 677 mmHg 29%
    15:00 +25°C° 0 mm 2 mps 677 mmHg 32%
    16:00 +24°C° 0 mm 2 mps 676 mmHg 36%
    17:00 +23°C° 0 mm 2 mps 676 mmHg 39%
    18:00 +20°C° 0 mm 2 mps 676 mmHg 46%
    19:00 +19°C° 0 mm 1 mps 676 mmHg 53%
    20:00 +16°C° 0 mm 1 mps 677 mmHg 60%
    21:00 +15°C° 0 mm 1 mps 677 mmHg 65%
    22:00 +14°C° 0 mm 1 mps 677 mmHg 69%
    23:00 +14°C° 0 mm 1 mps 677 mmHg 73%

    29 May, Wednesday

    Time Temperature Precipitation Wind Pressure Humidity
    00:00 +13°C° 0 mm 1 mps 676 mmHg 77%
    01:00 +13°C° 0 mm 1 mps 676 mmHg 80%
    02:00 +12°C° 0 mm 1 mps 676 mmHg 84%
    03:00 +12°C° 0 mm 1 mps 675 mmHg 85%
    04:00 +12°C° 0 mm 1 mps 675 mmHg 87%
    05:00 +12°C° 0 mm 1 mps 675 mmHg 88%
    06:00 +12°C° 0 mm 0 mps 676 mmHg 80%
    07:00 +14°C° 0 mm 0 mps 677 mmHg 72%
    08:00 +16°C° 0 mm 0 mps 678 mmHg 64%
    09:00 +19°C° 0 mm 0 mps 678 mmHg 55%
    10:00 +23°C° 0 mm 1 mps 679 mmHg 46%
    11:00 +26°C° 0 mm 1 mps 679 mmHg 36%
    12:00 +26°C° 0 mm 2 mps 678 mmHg 34%
    13:00 +26°C° 0 mm 2 mps 677 mmHg 32%
    14:00 +27°C° 0 mm 2 mps 677 mmHg 30%
    15:00 +25°C° 0 mm 2 mps 676 mmHg 33%
    16:00 +24°C° 0 mm 2 mps 676 mmHg 36%
    17:00 +23°C° 0 mm 1 mps 676 mmHg 39%
    18:00 +21°C° 0 mm 1 mps 676 mmHg 46%
    19:00 +20°C° 0 mm 1 mps 677 mmHg 52%
    20:00 +18°C° 0 mm 1 mps 677 mmHg 59%
    21:00 +16°C° 0 mm 1 mps 677 mmHg 66%
    22:00 +15°C° 0 mm 1 mps 677 mmHg 73%
    23:00 +13°C° 0 mm 0 mps 676 mmHg 80%

    30 May, Thursday

    Time Temperature Precipitation Wind Pressure Humidity
    00:00 +13°C° 0 mm 0 mps 676 mmHg 83%
    01:00 +12°C° 0 mm 0 mps 676 mmHg 86%
    02:00 +12°C° 0 mm 0 mps 675 mmHg 88%
    03:00 +12°C° 0 mm 0 mps 675 mmHg 89%
    04:00 +12°C° 0 mm 0 mps 675 mmHg 90%
    05:00 +11°C° 0 mm 0 mps 675 mmHg 92%
    06:00 +13°C° 0 mm 0 mps 676 mmHg 85%
    07:00 +14°C° 0 mm 0 mps 677 mmHg 78%
    08:00 +16°C° 0 mm 0 mps 678 mmHg 71%
    09:00 +19°C° 0 mm 0 mps 678 mmHg 61%
    10:00 +23°C° 0 mm 1 mps 678 mmHg 51%
    11:00 +26°C° 0 mm 1 mps 679 mmHg 41%
    12:00 +26°C° 0 mm 1 mps 678 mmHg 37%
    13:00 +26°C° 0 mm 2 mps 677 mmHg 34%
    14:00 +26°C° 0 mm 2 mps 676 mmHg 31%
    15:00 +25°C° 0 mm 2 mps 676 mmHg 33%
    16:00 +24°C° 0 mm 2 mps 676 mmHg 36%
    17:00 +23°C° 0 mm 2 mps 676 mmHg 38%
    18:00 +20°C° 0 mm 2 mps 676 mmHg 41%
    19:00 +19°C° 0 mm 1 mps 676 mmHg 44%
    20:00 +16°C° 0 mm 1 mps 676 mmHg 47%
    21:00 +15°C° 0 mm 1 mps 676 mmHg 48%
    22:00 +15°C° 0 mm 1 mps 675 mmHg 50%
    23:00 +14°C° 0 mm 1 mps 675 mmHg 51%

    31 May, Friday

    Time Temperature Precipitation Wind Pressure Humidity
    00:00 +14°C° 0 mm 1 mps 675 mmHg 54%
    01:00 +13°C° 0 mm 1 mps 675 mmHg 57%
    02:00 +13°C° 0 mm 1 mps 674 mmHg 60%
    03:00 +13°C° 0 mm 1 mps 674 mmHg 61%
    04:00 +12°C° 0 mm 1 mps 674 mmHg 63%
    05:00 +12°C° 0 mm 1 mps 675 mmHg 64%
    06:00 +14°C° 0 mm 1 mps 675 mmHg 59%
    07:00 +16°C° 0 mm 1 mps 676 mmHg 53%
    08:00 +19°C° 0 mm 1 mps 677 mmHg 47%
    09:00 +22°C° 0 mm 1 mps 677 mmHg 40%
    10:00 +25°C° 0 mm 1 mps 677 mmHg 33%
    11:00 +28°C° 0 mm 1 mps 678 mmHg 26%
    12:00 +28°C° 0 mm 1 mps 677 mmHg 25%
    13:00 +28°C° 0 mm 2 mps 676 mmHg 25%
    14:00 +28°C° 0 mm 2 mps 675 mmHg 24%
    15:00 +26°C° 0 mm 2 mps 675 mmHg 27%
    16:00 +25°C° 0 mm 2 mps 675 mmHg 29%
    17:00 +23°C° 0 mm 2 mps 675 mmHg 32%
    18:00 +21°C° 0 mm 2 mps 675 mmHg 35%
    19:00 +20°C° 0 mm 1 mps 675 mmHg 37%
    20:00 +18°C° 0 mm 1 mps 676 mmHg 39%
    21:00 +18°C° 0 mm 1 mps 676 mmHg 42%
    22:00 +16°C° 0 mm 1 mps 676 mmHg 45%
    23:00 +15°C° 0 mm 1 mps 676 mmHg 49%
    Show more